Regional Weather Roundup
Issued by NWS Columbia, SC

Home | Current Version | Previous Version | Text Only | Print | Product List | Glossary On
Versions: 1 2 3 4 5 6 7 8 9 10 11 12 13 14 15 16 17 18 19 20 21 22 23 24 25 26 27 28 29 30 31 32 33 34 35 36 37 38 39 40 41 42 43 44 45 46 47 48 49 50
014
ASUS42 KCAE 130310
RWRCAE
REGIONAL WEATHER ROUNDUP
NATIONAL WEATHER SERVICE COLUMBIA SC
1000 PM EST FRI FEB 12 2016

NOTE: "FAIR" INDICATES FEW OR NO CLOUDS BELOW 12,000 FEET WITH NO
SIGNIFICANT WEATHER AND/OR OBSTRUCTIONS TO VISIBILITY.

NOT ALL STATIONS ARE QUALITY CONTROLLED BY THE NATIONAL
WEATHER SERVICE. USE DATA WITH CAUTION...ESPECIALLY
DEWPOINT OBSERVATIONS.

SCZ001>056-GAZ040-063>065-077-130400-
...UPSTATE SOUTH CAROLINA...

CITY           SKY/WX    TMP DP  RH WIND       PRES   REMARKS
ANDERSON       CLEAR     43  27  53 W9G22     30.09R
LIBERTY        CLEAR     41  27  57 W10G20    30.06S
SPARTANBURG    CLEAR     37  27  65 NW7       30.05S WCI  32
CLEMSON        CLEAR     44  27  51 NW9       30.09R
GREENVILLE     CLEAR     43  25  49 W9        30.06R
GREENWOOD      CLEAR     46  27  47 W10G21    30.08R
GREER          CLEAR     39  27  62 NE6       30.05R WCI  35
ROCK HILL      CLEAR     36  29  75 NW6       30.04F WCI  31
LAURENS        CLEAR     43  30  61 NW9       30.06R


...CENTRAL SOUTH CAROLINA...

CITY           SKY/WX    TMP DP  RH WIND       PRES   REMARKS
COLUMBIA APT   CLEAR     35  29  78 W6        30.06R WCI  30
COLUMBIA OWENS CLEAR     37  31  78 CALM      30.07R
MCENTIRE ANGB  CLEAR     33  29  85 NW2       30.05R
ORANGEBURG     CLEAR     39  34  82 CALM      30.05R
SUMTER SHAW    CLEAR     31  27  83 N3        30.03R
NEWBERRY       CLEAR     36  32  87 N5        30.09R WCI  32
AIKEN          FAIR      36  32  87 W5        30.09R WCI  32
BARNWELL       FAIR      41  39  93 CALM      30.06R
MANNING        FAIR      32  30  93 CALM      30.05R
CAMDEN         FAIR      32  27  80 N5        30.08R WCI  27
LANCASTER      CLEAR     32  30  93 CALM      30.05F
WINNSBORO      CLEAR     36  30  80 N3        30.06R


...EASTERN AND COASTAL SOUTH CAROLINA...

CITY           SKY/WX    TMP DP  RH WIND       PRES   REMARKS
MYRTLE BEACH   CLEAR     36  25  64 N6        30.07F WCI  31
N MYRTLE BCH   CLEAR     33  29  85 CALM      30.06F
MARION         CLOUDY    32  30  93 NE3       30.06S
HARTSVILLE     FAIR      32  28  86 N5        30.05R WCI  27
FLORENCE       CLEAR     31  27  85 CALM      30.05S
DARLINGTON     PTCLDY    30  25  80 N6        30.07S WCI  24
CHARLESTON APT PTCLDY    43  36  76 CALM      30.05S
MOUNT PLEASANT FAIR      43  41  93 CALM      30.05S
WALTERBORO     PTCLDY    43  41  93 CALM      30.06S
BEAUFORT       PTCLDY    45  44  97 CALM      30.06R FOG


...EASTERN GEORGIA...

CITY           SKY/WX    TMP DP  RH WIND       PRES   REMARKS
AUGUSTA BUSH F CLEAR     40  36  86 NW6       30.07R
AUGUSTA DANIEL CLEAR     52  34  50 NW8       30.08R
THOMSON        CLEAR     40  38  93 NW3       30.13R
WASHINGTON     FAIR      48  36  61 CALM      30.10R
CLAXTON        FAIR      59  49  70 SW5       30.07R
SYLVANIA       CLEAR     46  46 100 CALM      30.08R
STATESBORO     CLEAR     50  49  96 CALM      30.07R
SAVANNAH       CLEAR     54  47  77 W8        30.06R


...SOUTHERN NORTH CAROLINA...

CITY           SKY/WX    TMP DP  RH WIND       PRES   REMARKS
CHARLOTTE      CLEAR     34  26  72 NW3       30.04S
MONROE         CLEAR     31  27  85 SW5       30.03S WCI  26
WADESBORO      MOCLDY    33  28  80 CALM      30.05S
ROCKINGHAM     CLOUDY    32  30  94 CALM      30.04F
RUTHERFORDTON  MOCLDY    38  25  60 W10       30.06S WCI  30
ASHEVILLE      CLOUDY    33  21  61 NW13      30.04R WCI  24

$$




USA.gov is the U.S. government's official web portal to all federal, state and local government web resources and services.